Miscellaneous Local Product
Issued by NWS Hastings, NE

Home | Current Version | Previous Version | Text Only | Print | Product List | Glossary Off
Versions: 1 2 3 4 5 6 7 8 9 10 11 12 13 14 15 16 17 18 19 20 21 22 23 24 25 26 27 28 29 30 31 32 33 34 35 36 37 38 39 40 41 42 43 44 45 46 47 48 49 50

000
AXUS43 KGID 271302
MISGRI

GID CWA HOURLY WEATHER ROUNDUP
NATIONAL WEATHER SERVICE HASTINGS NE
700 AM CST TUE JAN 27 2015

NOTE: "FAIR" INDICATES FEW OR NO CLOUDS BELOW 12,000 FEET WITH NO
SIGNIFICANT WEATHER AND/OR OBSTRUCTIONS TO VISIBILITY.

...SOUTH CENTRAL NEBRASKA...

CITY           SKY/WX    TMP DP  RH WIND       PRES   REMARKS
GRAND ISLAND   PTCLDY    34  30  85 SE8       30.05S WCI  27
HASTINGS       CLEAR     35  28  75 S6        30.04S WCI  30
KEARNEY        CLEAR     27  23  86 S5        30.04S WCI  21
ORD            CLEAR     25  21  85 CALM      30.01F
YORK           CLEAR     28  27  93 CALM      30.07S
AURORA         PTCLDY    34  29  82 S8        30.06R WCI  27
LEXINGTON      CLEAR     28  25  89 W3        30.04R
HOLDREGE       CLEAR     32  27  81 SW3       30.04S
HEBRON         PTCLDY    23  20  86 CALM      30.09S

...NEBRASKA PANHANDLE...

CITY           SKY/WX    TMP DP  RH WIND       PRES   REMARKS
CHADRON        CLEAR     35  28  75 SW9       30.01F WCI  28
ALLIANCE       CLEAR     31  27  85 W12       30.03F WCI  22
SCOTTSBLUFF      N/A     30  26  85 MISG      30.07S
SIDNEY         CLEAR     37  26  64 NW15      30.08S WCI  28

...WESTERN AND NORTH CENTRAL NEBRASKA...

CITY           SKY/WX    TMP DP  RH WIND       PRES   REMARKS
VALENTINE      PTCLDY    30  27  88 W8        29.97F WCI  22
AINSWORTH      CLEAR     34  29  83 SW3       29.98S
ONEILL         CLEAR     32  29  88 S8        30.00S WCI  25
BROKEN BOW     CLEAR     30  26  85 CALM      30.00F
IMPERIAL       PTCLDY    36  27  69 W7        30.07R WCI  30
NORTH PLATTE   CLEAR     23  20  88 CALM      30.04S
MCCOOK         PTCLDY    32  27  81 W9        30.06S WCI  24

...EASTERN NEBRASKA...

CITY           SKY/WX    TMP DP  RH WIND       PRES   REMARKS
NORFOLK        CLEAR     25  24  96 SE3       30.06R
SO SIOUX CITY  FOG       27  25  92 E3        30.10R VSB 1
TEKAMAH        CLEAR     25  23  92 CALM      30.11R
COLUMBUS       CLEAR     23  18  80 CALM      30.09R
ALBION         PTCLDY    26  22  87 CALM      30.05S
OMAHA EPPLEY   CLEAR     26  24  92 CALM      30.11R
OFFUTT AFB     CLEAR     24  22  95 S1        30.11R
MILLARD        CLEAR     28  26  94 CALM      30.11R
LINCOLN        CLEAR     21  18  88 CALM      30.11R
NEBRASKA CITY  CLEAR     31  29  94 W3        30.11R
BEATRICE       CLEAR     24  20  87 CALM      30.09R
FALLS CITY     PTCLDY    28  25  88 CALM      30.12R

...NORTHERN KANSAS...

CITY           SKY/WX    TMP DP  RH WIND       PRES   REMARKS
GOODLAND       CLEAR     45  28  51 W14       30.09S
HILL CITY      CLEAR     30  25  81 SW3       30.07S
NORTON         SUNNY     28  23  80 SW7       30.05  WCI  21
PHILLIPSBURG   CLEAR     32  28  86 W6        30.07R WCI  26
SMITH CENTER   CLEAR     27  23  86 SE3       30.07S
BELOIT         CLEAR     25  21  86 CALM      30.08S
HAYS           CLEAR     30  19  64 SW6       30.07F WCI  24
RUSSELL        CLEAR     33  29  85 SW9       30.06S WCI  25
CONCORDIA      PTCLDY    33  28  81 SE3       30.08S
SALINA         CLEAR     31  26  82 SE5       30.10S WCI  26
TOPEKA         CLEAR     28  24  85 CALM      30.14R



USA.gov is the U.S. government's official web portal to all federal, state and local government web resources and services.